Sparta, TN

10:19 AM CST on February 09, 2016 (GMT -0600)
Upper Cumberland Regional

Weather History for KSRB - January, 2013

Change the Weather History Date:

Sunday, January 6, 2013

  Actual Average (KCSV) Record (KCSV)
Temperature  
Mean Temperature 36 °F 36 °F  
Max Temperature 48 °F 44 °F 65 °F (1998)
Min Temperature 24 °F 27 °F -2 °F (2014)
Degree Days  
Heating Degree Days 29    
Month to date heating degree days  
Since 1 July heating degree days  
Cooling Degree Days 0    
Month to date cooling degree days  
Year to date cooling degree days  
Moisture  
Dew Point 35 °F    
Average Humidity 87    
Maximum Humidity 100    
Minimum Humidity 66    
Precipitation  
Precipitation 0.00 in 0.16 in 1.55 in (1964)
Month to date precipitation 0.91  
Year to date precipitation 0.91  
Sea Level Pressure  
Sea Level Pressure 30.22 in    
Wind  
Wind Speed 7 mph (WSW)    
Max Wind Speed 13 mph    
Max Gust Speed -    
Visibility 10 miles    
Events      
T = Trace of Precipitation, MM = Missing Value Source: NWS Daily Summary

Daily Weather History Graph

Daily Weather History Graph

Search for Another Location

Airport or City:

Trip Planner

Search our weather history database for the weather conditions in past years. The results will help you decide how hot, cold, wet, or windy it might be!

Date:

Astronomy

Jan. 06, 2013 Rise Set
Actual Time 6:53 AM CST 4:43 PM CST
Civil Twilight 6:25 AM CST 5:11 PM CST
Nautical Twilight 5:53 AM CST 5:43 PM CST
Astronomical Twilight 5:22 AM CST 6:14 PM CST
Moon 1:11 AM CST (1/6) 12:06 PM CST (1/6)
Length of Visible Light 10h 46m
Length of Day
9h 49m
Waning Crescent, 33% of the Moon is Illuminated
Jan 6
Waning Crescent
Jan 11
New
Jan 18
First Quarter
Jan 26
Full
Feb 3
Last Quarter

Hourly Weather History & Observations

Time (CST) Temp. Windchill Dew Point Humidity Pressure Visibility Wind Dir Wind Speed Gust Speed Precip Events Conditions
12:15 AM 39.2 °F 34.2 °F 33.8 °F 81% 30.22 in 10.0 mi SW 6.9 mph - N/A   Overcast
12:35 AM 39.2 °F 33.6 °F 35.6 °F 87% 30.23 in 10.0 mi SW 8.1 mph - N/A   Overcast
12:55 AM 37.4 °F 31.4 °F 35.6 °F 93% 30.22 in 10.0 mi SW 8.1 mph - N/A   Overcast
1:15 AM 37.4 °F 32.1 °F 35.6 °F 93% 30.22 in 10.0 mi SW 6.9 mph - N/A   Overcast
1:35 AM 37.4 °F 32.1 °F 35.6 °F 93% 30.22 in 10.0 mi SW 6.9 mph - N/A   Overcast
1:55 AM 37.4 °F 32.8 °F 35.6 °F 93% 30.23 in 10.0 mi WSW 5.8 mph - N/A   Overcast
2:15 AM 37.4 °F 32.1 °F 37.4 °F 100% 30.22 in 10.0 mi SW 6.9 mph - N/A   Overcast
2:35 AM 37.4 °F 32.1 °F 37.4 °F 100% 30.22 in 10.0 mi SW 6.9 mph - N/A   Overcast
2:55 AM 37.4 °F 33.8 °F 35.6 °F 93% 30.21 in 10.0 mi SSW 4.6 mph - N/A   Mostly Cloudy
3:15 AM 37.4 °F 32.8 °F 35.6 °F 93% 30.20 in 10.0 mi SSW 5.8 mph - N/A   Mostly Cloudy
3:35 AM 37.4 °F 32.8 °F 35.6 °F 93% 30.19 in 10.0 mi SSW 5.8 mph - N/A   Mostly Cloudy
3:55 AM 37.4 °F 32.8 °F 35.6 °F 93% 30.19 in 10.0 mi SW 5.8 mph - N/A   Mostly Cloudy
4:15 AM 37.4 °F 32.8 °F 35.6 °F 93% 30.18 in 10.0 mi SW 5.8 mph - N/A   Overcast
4:35 AM 37.4 °F 33.8 °F 35.6 °F 93% 30.19 in 10.0 mi SW 4.6 mph - N/A   Mostly Cloudy
4:55 AM 37.4 °F 34.9 °F 35.6 °F 93% 30.18 in 10.0 mi SW 3.5 mph - N/A   Overcast
5:15 AM 37.4 °F 33.8 °F 35.6 °F 93% 30.19 in 10.0 mi SW 4.6 mph - N/A   Overcast
5:35 AM 37.4 °F 33.8 °F 35.6 °F 93% 30.20 in 10.0 mi SW 4.6 mph - N/A   Overcast
5:55 AM 35.6 °F 31.7 °F 35.6 °F 100% 30.20 in 10.0 mi SW 4.6 mph - N/A   Overcast
6:15 AM 37.4 °F 34.9 °F 35.6 °F 93% 30.20 in 10.0 mi WSW 3.5 mph - N/A   Overcast
6:35 AM 35.6 °F 31.7 °F 35.6 °F 100% 30.21 in 10.0 mi SW 4.6 mph - N/A   Overcast
6:55 AM 35.6 °F 31.7 °F 35.6 °F 100% 30.20 in 10.0 mi SSW 4.6 mph - N/A   Mostly Cloudy
7:15 AM 35.6 °F 30.7 °F 35.6 °F 100% 30.20 in 10.0 mi SSW 5.8 mph - N/A   Mostly Cloudy
7:35 AM 37.4 °F 33.8 °F 35.6 °F 93% 30.21 in 10.0 mi SW 4.6 mph - N/A   Mostly Cloudy
7:55 AM 37.4 °F 32.8 °F 37.4 °F 100% 30.21 in 10.0 mi SSW 5.8 mph - N/A   Mostly Cloudy
8:15 AM 37.4 °F 32.8 °F 37.4 °F 100% 30.21 in 10.0 mi SSW 5.8 mph - N/A   Mostly Cloudy
8:35 AM 37.4 °F 33.8 °F 37.4 °F 100% 30.21 in 10.0 mi SW 4.6 mph - N/A   Overcast
8:55 AM 39.2 °F 34.2 °F 37.4 °F 93% 30.21 in 10.0 mi SW 6.9 mph - N/A   Mostly Cloudy
9:15 AM 39.2 °F 34.2 °F 37.4 °F 93% 30.21 in 10.0 mi SW 6.9 mph - N/A   Mostly Cloudy
9:35 AM 39.2 °F 33.0 °F 37.4 °F 93% 30.21 in 10.0 mi SW 9.2 mph - N/A   Mostly Cloudy
9:55 AM 41.0 °F 34.7 °F 37.4 °F 87% 30.21 in 10.0 mi WSW 10.4 mph - N/A   Mostly Cloudy
10:15 AM 41.0 °F 34.7 °F 37.4 °F 87% 30.20 in 10.0 mi SW 10.4 mph - N/A   Mostly Cloudy
10:35 AM 42.8 °F 38.0 °F 39.2 °F 87% 30.20 in 10.0 mi WSW 8.1 mph - N/A   Mostly Cloudy
10:55 AM 41.0 °F 35.2 °F 37.4 °F 87% 30.20 in 10.0 mi WSW 9.2 mph - N/A   Overcast
11:15 AM 42.8 °F 37.0 °F 37.4 °F 81% 30.19 in 10.0 mi SW 10.4 mph - N/A   Overcast
11:35 AM 42.8 °F 38.6 °F 37.4 °F 81% 30.18 in 10.0 mi SW 6.9 mph - N/A   Overcast
11:55 AM 42.8 °F 38.6 °F 37.4 °F 81% 30.17 in 10.0 mi SW 6.9 mph - N/A   Overcast
12:15 PM 44.6 °F 41.4 °F 37.4 °F 76% 30.16 in 10.0 mi WSW 5.8 mph - N/A   Mostly Cloudy
12:35 PM 44.6 °F 40.2 °F 37.4 °F 76% 30.15 in 10.0 mi West 8.1 mph - N/A   Mostly Cloudy
12:55 PM 46.4 °F 41.5 °F 39.2 °F 76% 30.14 in 10.0 mi SW 10.4 mph - N/A   Mostly Cloudy
1:15 PM 46.4 °F 41.5 °F 39.2 °F 76% 30.14 in 10.0 mi SW 10.4 mph - N/A   Mostly Cloudy
1:35 PM 46.4 °F 43.5 °F 37.4 °F 71% 30.13 in 10.0 mi West 5.8 mph - N/A   Mostly Cloudy
1:55 PM 46.4 °F 41.9 °F 37.4 °F 71% 30.13 in 10.0 mi West 9.2 mph - N/A   Scattered Clouds
2:15 PM 46.4 °F 42.9 °F 37.4 °F 71% 30.13 in 10.0 mi Variable 6.9 mph - N/A   Scattered Clouds
2:35 PM 48.2 °F - 39.2 °F 71% 30.14 in 10.0 mi West 9.2 mph - N/A   Mostly Cloudy
2:55 PM 48.2 °F - 37.4 °F 66% 30.15 in 10.0 mi West 11.5 mph - N/A   Scattered Clouds
3:15 PM 48.2 °F - 37.4 °F 66% 30.16 in 10.0 mi NW 12.7 mph - N/A   Mostly Cloudy
3:35 PM 46.4 °F 40.7 °F 35.6 °F 66% 30.16 in 10.0 mi WNW 12.7 mph - N/A   Scattered Clouds
3:55 PM 46.4 °F 42.9 °F 37.4 °F 71% 30.17 in 10.0 mi WNW 6.9 mph - N/A   Mostly Cloudy
4:15 PM 44.6 °F 41.4 °F 35.6 °F 71% 30.18 in 10.0 mi NW 5.8 mph - N/A   Overcast
4:35 PM 44.6 °F 39.2 °F 35.6 °F 71% 30.19 in 10.0 mi NW 10.4 mph - N/A   Overcast
4:55 PM 42.8 °F 37.5 °F 35.6 °F 76% 30.21 in 10.0 mi NNW 9.2 mph - N/A   Overcast
5:15 PM 41.0 °F 38.0 °F 33.8 °F 76% 30.22 in 10.0 mi NNW 4.6 mph - N/A   Overcast
5:35 PM 39.2 °F 34.2 °F 33.8 °F 81% 30.23 in 10.0 mi NW 6.9 mph - N/A   Scattered Clouds
5:55 PM 39.2 °F 35.0 °F 33.8 °F 81% 30.24 in 10.0 mi NNW 5.8 mph - N/A   Clear
6:15 PM 39.2 °F 34.2 °F 33.8 °F 81% 30.25 in 10.0 mi North 6.9 mph - N/A   Clear
6:35 PM 37.4 °F 33.8 °F 33.8 °F 87% 30.26 in 10.0 mi North 4.6 mph - N/A   Partly Cloudy
6:55 PM 37.4 °F 33.8 °F 33.8 °F 87% 30.27 in 10.0 mi North 4.6 mph - N/A   Partly Cloudy
7:35 PM 35.6 °F 30.7 °F 32.0 °F 87% 30.29 in 10.0 mi North 5.8 mph - N/A   Clear
7:55 PM 35.6 °F 30.7 °F 32.0 °F 87% 30.30 in 10.0 mi Variable 5.8 mph - N/A   Clear
8:15 PM 33.8 °F 27.7 °F 30.2 °F 87% 30.32 in 10.0 mi North 6.9 mph - N/A   Partly Cloudy
8:35 PM 33.8 °F 28.6 °F 30.2 °F 87% 30.32 in 10.0 mi Variable 5.8 mph - N/A   Scattered Clouds
9:15 PM 32.0 °F 26.4 °F 28.4 °F 87% 30.32 in 10.0 mi NNE 5.8 mph - N/A   Partly Cloudy
9:55 PM 30.2 °F 24.3 °F 26.6 °F 86% 30.32 in 10.0 mi NNW 5.8 mph - N/A   Clear
10:15 PM 28.4 °F 23.3 °F 26.6 °F 93% 30.33 in 10.0 mi NNW 4.6 mph - N/A   Clear
10:35 PM 28.4 °F 23.3 °F 26.6 °F 93% 30.35 in 10.0 mi NNW 4.6 mph - N/A   Clear
10:55 PM 26.6 °F - 26.6 °F 100% 30.35 in 10.0 mi Calm Calm - N/A   Clear
11:35 PM 24.8 °F - 24.8 °F 100% 30.34 in 9.0 mi Calm Calm - N/A   Clear
11:55 PM 26.6 °F - 26.6 °F 100% 30.33 in 10.0 mi Calm Calm - N/A   Clear